Weather History for Minneapolis, MN

Change the Weather History Date:

Sunday, December 22, 2013

  Actual Average Record
Temperature  
Mean Temperature 12 °F 18 °F  
Max Temperature 19 °F 25 °F 53 °F (1890)
Min Temperature 5 °F 10 °F -20 °F (1983)
Degree Days  
Heating Degree Days 53 47  
Month to date heating degree days 1131 970  
Since 1 July heating degree days 2632 2589  
Cooling Degree Days 0 0  
Month to date cooling degree days 0 0  
Year to date cooling degree days 983 753  
Moisture  
Dew Point 11 °F    
Average Humidity 81    
Maximum Humidity 88    
Minimum Humidity 74    
Precipitation  
Precipitation 0.03 in 0.03 in 0.52 in (1968)
Month to date precipitation 1.11 0.85  
Year to date precipitation 32.42 30.30  
Snow  
Snow 0.80 in 0.40 in 7.60 in (1968)
Month to date snowfall 11.5 8.7  
Since 1 July snowfall 12.6 18.6  
Snow Depth 6.00 in    
Sea Level Pressure  
Sea Level Pressure 30.07 in    
Wind  
Wind Speed 9 mph (NW)    
Max Wind Speed 16 mph    
Max Gust Speed 18 mph    
Visibility 6 miles    
Events Snow    
T = Trace of Precipitation, MM = Missing Value Source: NWS Daily Summary

Daily Weather History Graph

Daily Weather History Graph

Search for Another Location

Airport:

Trip Planner

Search our weather history database for the weather conditions in past years. The results will help you decide how hot, cold, wet, or windy it might be!

Date:

Astronomy

Dec. 22, 2013 Rise Set
Actual Time 7:48 AM CST 4:35 PM CST
Civil Twilight 7:14 AM CST 5:08 PM CST
Nautical Twilight 6:37 AM CST 5:46 PM CST
Astronomical Twilight 6:01 AM CST 6:21 PM CST
Moon 10:01 PM CST (12/22) 10:33 AM CST (12/22)
Length of Visible Light 9h 54m
Length of Day
8h 46m
Waning Gibbous, 76% of the Moon is Illuminated
Dec 22
Waning Gibbous
Dec 25
Last Quarter
Jan 1
New
Jan 7
First Quarter
Jan 15
Full

Hourly Weather History & Observations

Time (CST) Temp. Windchill Dew Point Humidity Pressure Visibility Wind Dir Wind Speed Gust Speed Precip Events Conditions
12:34 AM 15.8 °F 4.2 °F 10.4 °F 79% 29.94 in 10.0 mi NNW 9.2 mph - N/A   Mostly Cloudy
12:53 AM 15.1 °F 4.2 °F 10.9 °F 84% 29.98 in 10.0 mi NNW 8.1 mph - N/A   Overcast
1:15 AM 15.8 °F 7.2 °F 10.4 °F 79% 29.94 in 10.0 mi NNW 5.8 mph - N/A   Overcast
1:53 AM 16.0 °F 7.4 °F 12.0 °F 84% 29.99 in 10.0 mi NNW 5.8 mph - N/A   Overcast
2:36 AM 15.8 °F 4.2 °F 10.4 °F 79% 29.96 in 10.0 mi NNW 9.2 mph - N/A   Overcast
2:53 AM 16.0 °F 5.3 °F 10.9 °F 81% 30.02 in 10.0 mi NNW 8.1 mph - N/A   Overcast
3:23 AM 15.8 °F 3.4 °F 12.2 °F 86% 29.97 in 10.0 mi NW 10.4 mph - N/A   Overcast
3:53 AM 16.0 °F 5.3 °F 10.9 °F 81% 30.01 in 10.0 mi NW 8.1 mph - N/A   Overcast
4:53 AM 16.0 °F 6.3 °F 10.9 °F 81% 29.99 in 10.0 mi NW 6.9 mph - N/A   Overcast
5:53 AM 16.0 °F 6.3 °F 12.0 °F 84% 30.01 in 10.0 mi NW 6.9 mph - N/A   Overcast
6:53 AM 17.1 °F 6.6 °F 12.9 °F 84% 30.02 in 10.0 mi NW 8.1 mph - N/A   Overcast
7:27 AM 17.6 °F 8.2 °F 14.0 °F 86% 29.97 in 10.0 mi NW 6.9 mph - N/A   Overcast
7:42 AM 17.6 °F 6.4 °F 14.0 °F 86% 29.97 in 10.0 mi NNW 9.2 mph - N/A   Overcast
7:53 AM 18.0 °F 7.7 °F 14.0 °F 84% 30.02 in 10.0 mi NW 8.1 mph - 0.00 in Snow Light Snow
8:53 AM 19.0 °F 9.0 °F 15.1 °F 85% 30.03 in 8.0 mi NNW 8.1 mph - 0.00 in Snow Light Snow
9:37 AM 19.4 °F 9.5 °F 15.8 °F 86% 29.99 in 2.0 mi NNW 8.1 mph - 0.00 in Snow Light Snow
9:53 AM 19.0 °F 8.2 °F 15.1 °F 85% 30.04 in 1.5 mi NNW 9.2 mph - 0.01 in Snow Light Snow
10:01 AM 19.4 °F 7.9 °F 15.8 °F 86% 30.00 in 1.0 mi NNW 10.4 mph - 0.00 in Snow Light Snow
10:13 AM 19.4 °F 8.6 °F 15.8 °F 86% 30.01 in 0.8 mi NNW 9.2 mph - 0.00 in Snow Light Snow
10:26 AM 19.4 °F 9.5 °F 15.8 °F 86% 30.01 in 1.0 mi NW 8.1 mph - 0.00 in Snow Light Snow
10:42 AM 19.4 °F 8.6 °F 15.8 °F 86% 30.02 in 2.5 mi NW 9.2 mph - 0.00 in Snow Light Snow
10:53 AM 19.0 °F 7.5 °F 15.1 °F 85% 30.07 in 2.0 mi NW 10.4 mph - 0.00 in Snow Light Snow
11:02 AM 19.4 °F 6.6 °F 14.0 °F 80% 30.02 in 1.8 mi NW 12.7 mph - 0.01 in Snow Light Snow
11:11 AM 19.4 °F 7.2 °F 14.0 °F 80% 30.02 in 1.2 mi NW 11.5 mph - 0.01 in Snow Light Snow
11:53 AM 19.0 °F 7.5 °F 14.0 °F 81% 30.06 in 1.2 mi NW 10.4 mph - 0.01 in Snow Light Snow
11:59 AM 19.4 °F 7.9 °F 14.0 °F 80% 30.01 in 3.0 mi NW 10.4 mph - 0.00 in Snow Light Snow
12:10 PM 19.4 °F 5.5 °F 14.0 °F 80% 30.01 in 3.0 mi NW 15.0 mph - 0.00 in Snow Light Snow
12:53 PM 18.0 °F 5.4 °F 12.9 °F 81% 30.06 in 3.0 mi NW 11.5 mph - 0.00 in Snow Light Snow
1:45 PM 19.4 °F 6.0 °F 12.2 °F 74% 30.03 in 8.0 mi NW 13.8 mph - 0.00 in   Overcast
1:53 PM 19.0 °F 8.2 °F 12.9 °F 77% 30.07 in 10.0 mi NW 9.2 mph - 0.00 in   Overcast
2:19 PM 19.4 °F 7.9 °F 12.2 °F 74% 30.03 in 10.0 mi NW 10.4 mph - N/A   Overcast
2:31 PM 19.4 °F 7.2 °F 12.2 °F 74% 30.03 in 10.0 mi NW 11.5 mph - N/A   Mostly Cloudy
2:53 PM 17.6 °F 5.7 °F 12.2 °F 79% 30.09 in 9.0 mi NNW 10.4 mph - N/A   Overcast
3:53 PM 17.1 °F 5.0 °F 10.9 °F 77% 30.13 in 9.0 mi WNW 10.4 mph - N/A   Overcast
4:53 PM 14.0 °F 0.5 °F 9.0 °F 80% 30.17 in 7.0 mi WNW 11.5 mph - 0.00 in Snow Light Snow
5:17 PM 14.0 °F -0.2 °F 8.6 °F 79% 30.12 in 2.5 mi NW 12.7 mph - 0.00 in Snow Light Snow
5:53 PM 12.9 °F 0.7 °F 9.0 °F 84% 30.19 in 3.0 mi WNW 9.2 mph - 0.01 in Snow Light Snow
6:00 PM 12.2 °F -2.5 °F 8.6 °F 85% 30.13 in 5.0 mi NW 12.7 mph - 0.00 in Snow Light Snow
6:53 PM 12.0 °F 2.7 °F 7.0 °F 80% 30.20 in 6.0 mi WNW 5.8 mph - 0.00 in Snow Light Snow
7:25 PM 10.4 °F -2.4 °F 6.8 °F 85% 30.15 in 10.0 mi WNW 9.2 mph - 0.00 in   Overcast
7:53 PM 10.9 °F -1.8 °F 6.1 °F 81% 30.21 in 8.0 mi WNW 9.2 mph - 0.00 in Snow Light Snow
8:53 PM 10.0 °F -4.5 °F 5.0 °F 80% 30.22 in 8.0 mi WNW 11.5 mph - 0.00 in Snow Light Snow
9:53 PM 10.0 °F -4.5 °F 5.0 °F 80% 30.23 in 8.0 mi West 11.5 mph - 0.00 in Snow Light Snow
10:36 PM 8.6 °F -5.5 °F 3.2 °F 79% 30.20 in 3.0 mi West 10.4 mph - 0.00 in Snow Light Snow
10:53 PM 7.0 °F -8.3 °F 3.0 °F 84% 30.26 in 3.0 mi West 11.5 mph - 0.00 in Snow Light Snow
11:10 PM 6.8 °F -9.3 °F 1.4 °F 79% 30.21 in 3.0 mi West 12.7 mph - 0.00 in Snow Light Snow
11:53 PM 5.0 °F -10.8 °F 1.0 °F 84% 30.28 in 3.0 mi West 11.5 mph - 0.00 in Snow Light Snow